Wyszukaj podmiot
Liczba podmiotów: 1
3WDT SP. Z O.O.
TORUŃ NIP: 9562325485 KRS: 0000682992 Regon: 367546275
Oferujemy dostęp online do bazy składającej się z ponad 1 mln sprawozdań dla ponad 400 tys. podmiotów KRS.
Nasz raport zawiera:
- identyfikację podmiotu,
- bilanse i rachunki wyników,
- wyliczone wskaźniki (tabela i wykresy).
Możesz importować dane bezpośrednio do Excela!!!
Każde sprawozdanie uwzględnia:
- okres którego dotyczy,
- zawartość (bilans, rachunek wyników porównawczy/kalkulacyjny),
- zidentyfikowane błędy/ostrzeżenia w sprawozdaniach,
- dynamikę zmiany poszczególnych pozycji rok do roku.
Ostatnio przeglądane Sprawozdania Finansowe w naszym serwisie:
Data wykonaniaNazwaNumerSpr.
08.05.2026 09:32:22 "BRODR.JORGENSEN" S.A. 00001050559
08.05.2026 09:25:59 BRAND DISTRIBUTION POLAND SP. Z O.O. 00005658188
08.05.2026 09:16:39 "DZIAŁPOL" SP. Z O.O. 00000952258
08.05.2026 09:09:49 BIOGAZ DZIAŁYŃ SP. Z O.O. 00004245148
08.05.2026 09:08:03 BIOKINETICA S.A. 00005745217
08.05.2026 09:04:27 MANUTAN POLSKA SP. Z O.O. 00000491668
08.05.2026 08:51:57 "ARKA" SP. Z O.O. 00001895398
08.05.2026 08:48:02 NZOZ PRZYCHODNIA STOMATOLOGICZNA SP. Z O.O. 00007104916
08.05.2026 08:35:10 AURELIUS DEBITUM BANKO SP. Z O.O. 00011695292
08.05.2026 08:26:53 GOLDBECK ELEMENTY POLSKA SP. Z O.O. 00006666119
08.05.2026 08:09:57 "MODUSMED" SP. Z O.O. 00003433079
08.05.2026 08:09:33 ARTEMED SP. Z O.O. 00009191885
08.05.2026 08:05:43 MEDASK SP. Z O.O. 00010063883
08.05.2026 07:38:15 KBZ CONSULTING SP. Z O.O. 00001995778
08.05.2026 07:19:26 BIOKINETICA S.A. 00005745217
08.05.2026 06:57:22 "GRUNDFOS POMPY" SP. Z O.O. 00000293848
07.05.2026 23:58:39 CGO LEGAL CHAJDAS GAWLAK OWCZAREK SP.K. 00005138178
07.05.2026 23:22:40 PRZEDSIĘBIORSTWO BADAWCZO-WDROŻENIOWE OLMEX S.A. 00000605975
07.05.2026 23:21:12 CORAB ENERGY SP. Z O.O. 00003837038
07.05.2026 21:31:50 Z.E.A.N.N. ROTOR SP. Z O.O. 00003947038
07.05.2026 19:58:33 NANOCHEM SP. Z O.O. 00002766368
07.05.2026 19:44:57 FOODSOFT.PL SP. Z O.O. 00005052558
07.05.2026 18:19:17 ENTER AIR SP. Z O.O. 00003394086
07.05.2026 17:49:49 DLA PIPER GIZIŃSKI KYCIA SP.K. 00009590734
07.05.2026 15:37:29 KLINIKA FLEBOLOGII SP. Z O.O. 00005686258